Chicago Midway, IL

8:07 AM CDT on April 25, 2018 (GMT -0500)
Chicago-Midway

Weather History for KMDW - March, 2014

Change the Weather History Date:

Monday, March 31, 2014

  Actual Average Record
Temperature  
Mean Temperature 56 °F 44 °F  
Max Temperature 68 °F 53 °F 85 °F (1986)
Min Temperature 44 °F 36 °F 27 °F (2011)
Degree Days  
Heating Degree Days 9 21  
Month to date heating degree days 997 812  
Since 1 July heating degree days 6199 5323  
Cooling Degree Days 0 0  
Month to date cooling degree days 0 1  
Year to date cooling degree days 0 1  
Growing Degree Days 5 (Base 50)    
Moisture  
Dew Point 31 °F    
Average Humidity 40    
Maximum Humidity 63    
Minimum Humidity 12    
Precipitation  
Precipitation 0.03 in 0.11 in 2.50 in (1929)
Month to date precipitation 1.09 2.72  
Year to date precipitation 3.58 6.72  
Sea Level Pressure  
Sea Level Pressure 29.91 in    
Wind  
Wind Speed 16 mph (South)    
Max Wind Speed 29 mph    
Max Gust Speed 44 mph    
Visibility 10 miles    
Events Rain , Thunderstorm    
T = Trace of Precipitation, MM = Missing Value Source: NWS Daily Summary

Daily Weather History Graph

Daily Weather History Graph

Search for Another Location

Airport or City:

Astronomy

Mar. 31, 2014 Rise Set
Actual Time 6:35 AM CDT 7:15 PM CDT
Civil Twilight 6:07 AM CDT 7:43 PM CDT
Nautical Twilight 5:34 AM CDT 8:16 PM CDT
Astronomical Twilight 5:00 AM CDT 8:51 PM CDT
Moon 6:57 AM CDT (3/31) 8:35 PM CDT (3/31)
Length of Visible Light 13h 35m
Length of Day
12h 39m
New Moon, 1% of the Moon is Illuminated
Mar 31
New Moon
Apr 7
First Quarter
Apr 15
Full
Apr 22
Last Quarter
Apr 29
New

Hourly Weather History & Observations

Time (CDT) Temp. Windchill Dew Point Humidity Pressure Visibility Wind Dir Wind Speed Gust Speed Precip Events Conditions
12:51 AM 46.9 °F - 33.1 °F 59% 30.06 in 10.0 mi South 6.9 mph - N/A   Mostly Cloudy
1:51 AM 46.0 °F 41.4 °F 33.1 °F 61% 30.06 in 10.0 mi South 9.2 mph - N/A   Scattered Clouds
2:51 AM 45.0 °F 41.2 °F 32.0 °F 60% 30.05 in 10.0 mi South 6.9 mph - N/A   Scattered Clouds
3:51 AM 44.1 °F 40.1 °F 32.0 °F 63% 30.05 in 10.0 mi SSW 6.9 mph - N/A   Scattered Clouds
4:51 AM 45.0 °F 40.1 °F 32.0 °F 60% 30.06 in 10.0 mi SSW 9.2 mph - N/A   Mostly Cloudy
5:51 AM 46.0 °F 41.4 °F 32.0 °F 58% 30.05 in 10.0 mi South 9.2 mph - N/A   Mostly Cloudy
6:51 AM 45.0 °F 40.1 °F 32.0 °F 60% 30.05 in 10.0 mi South 9.2 mph - N/A   Mostly Cloudy
7:51 AM 46.0 °F 41.4 °F 33.1 °F 61% 30.05 in 10.0 mi South 9.2 mph - N/A   Mostly Cloudy
8:51 AM 50.0 °F - 34.0 °F 54% 30.03 in 10.0 mi South 11.5 mph 20.7 mph N/A   Mostly Cloudy
9:51 AM 53.1 °F - 33.1 °F 47% 30.02 in 10.0 mi South 10.4 mph - N/A   Mostly Cloudy
10:51 AM 57.0 °F - 32.0 °F 39% 30.01 in 10.0 mi South 16.1 mph 26.5 mph N/A   Mostly Cloudy
11:51 AM 61.0 °F - 32.0 °F 34% 29.99 in 10.0 mi South 19.6 mph 29.9 mph N/A   Mostly Cloudy
12:51 PM 64.0 °F - 32.0 °F 30% 29.96 in 10.0 mi South 21.9 mph 31.1 mph N/A   Mostly Cloudy
1:51 PM 66.0 °F - 28.0 °F 24% 29.91 in 10.0 mi South 20.7 mph 33.4 mph N/A   Mostly Cloudy
2:51 PM 66.0 °F - 28.9 °F 25% 29.88 in 10.0 mi South 19.6 mph 32.2 mph N/A   Mostly Cloudy
3:51 PM 66.0 °F - 26.1 °F 22% 29.85 in 10.0 mi South 28.8 mph 38.0 mph N/A   Overcast
4:51 PM 66.0 °F - 28.0 °F 24% 29.79 in 10.0 mi SSE 23.0 mph 42.6 mph N/A   Mostly Cloudy
5:51 PM 64.9 °F - 26.1 °F 23% 29.77 in 10.0 mi SSE 19.6 mph 28.8 mph N/A   Mostly Cloudy
6:51 PM 64.9 °F - 24.1 °F 21% 29.76 in 10.0 mi SSE 23.0 mph 32.2 mph N/A   Mostly Cloudy
7:51 PM 63.0 °F - 27.0 °F 26% 29.78 in 10.0 mi South 18.4 mph 28.8 mph 0.00 in Rain Light Rain
8:28 PM 62.1 °F - 30.0 °F 30% 29.77 in 10.0 mi South 20.7 mph 32.2 mph 0.00 in Thunderstorm Thunderstorm
8:45 PM 60.8 °F - 33.8 °F 36% 29.77 in 10.0 mi South 18.4 mph 27.6 mph 0.00 in Rain Light Rain
8:51 PM 61.0 °F - 34.0 °F 36% 29.77 in 10.0 mi SSE 23.0 mph 31.1 mph 0.00 in Rain Light Rain
9:51 PM 61.0 °F - 33.1 °F 35% 29.75 in 10.0 mi South 18.4 mph 32.2 mph 0.00 in Rain Light Rain
10:51 PM 57.9 °F - 39.0 °F 49% 29.75 in 10.0 mi South 13.8 mph 23.0 mph 0.01 in Rain Light Rain
11:51 PM 55.9 °F - 39.9 °F 55% 29.73 in 10.0 mi South 13.8 mph 25.3 mph 0.02 in   Mostly Cloudy